Weather History for Sheridan, WY

Change the Weather History Date:

Tuesday, October 5, 2010

  Actual Average Record
Temperature  
Mean Temperature 63 °F 49 °F  
Max Temperature 77 °F 64 °F 90 °F (1920)
Min Temperature 48 °F 34 °F 17 °F (1916)
Degree Days  
Heating Degree Days 2 16  
Month to date heating degree days 14 74  
Since 1 July heating degree days 269 377  
Cooling Degree Days 0 0  
Month to date cooling degree days 0 0  
Year to date cooling degree days 354 418  
Growing Degree Days 12 (Base 50)    
Moisture  
Dew Point 47 °F    
Average Humidity 64    
Maximum Humidity 93    
Minimum Humidity 35    
Precipitation  
Precipitation 0.70 in 0.05 in 1.22 in (1946)
Month to date precipitation 0.70 0.29  
Year to date precipitation 13.20 11.77  
Sea Level Pressure  
Sea Level Pressure 30.11 in    
Wind  
Wind Speed 6 mph (WNW)    
Max Wind Speed 21 mph    
Max Gust Speed 29 mph    
Visibility 10 miles    
Events Rain    
T = Trace of Precipitation, MM = Missing Value Source: NWS Daily Summary

Daily Weather History Graph

Daily Weather History Graph

Search for Another Location

Airport:

Trip Planner

Search our weather history database for the weather conditions in past years. The results will help you decide how hot, cold, wet, or windy it might be!

Date:

Astronomy

Oct. 05, 2010 Rise Set
Actual Time 7:10 AM MDT 6:40 PM MDT
Civil Twilight 6:41 AM MDT 7:10 PM MDT
Nautical Twilight 6:07 AM MDT 7:43 PM MDT
Astronomical Twilight 5:33 AM MDT 8:18 PM MDT
Moon 4:31 AM MDT (10/5) 5:16 PM MDT (10/5)
Length of Visible Light 12h 28m
Length of Day
11h 30m
Waning Crescent, 6% of the Moon is Illuminated
Oct 5
Waning Crescent
Oct 7
New
Oct 14
First Quarter
Oct 22
Full
Oct 30
Last Quarter

Hourly Weather History & Observations

Time (MDT) Temp. Dew Point Humidity Pressure Visibility Wind Dir Wind Speed Gust Speed Precip Events Conditions
12:53 AM 64.9 °F 39.0 °F 39% 29.78 in 10.0 mi WNW 11.5 mph - N/A   Clear
1:53 AM 66.0 °F 39.9 °F 38% 29.80 in 10.0 mi NNW 13.8 mph - N/A   Clear
2:53 AM 60.1 °F 42.1 °F 51% 29.82 in 10.0 mi NW 10.4 mph - N/A   Clear
3:53 AM 60.1 °F 42.1 °F 51% 29.84 in 10.0 mi Variable 3.5 mph - N/A   Clear
4:53 AM 57.9 °F 42.1 °F 56% 29.87 in 10.0 mi WSW 3.5 mph - N/A   Clear
5:53 AM 51.1 °F 41.0 °F 68% 29.93 in 10.0 mi West 5.8 mph - N/A   Clear
6:53 AM 52.0 °F 39.9 °F 63% 29.99 in 10.0 mi South 3.5 mph - N/A   Clear
7:53 AM 52.0 °F 41.0 °F 66% 30.00 in 10.0 mi SSE 5.8 mph - N/A   Clear
8:53 AM 64.0 °F 43.0 °F 46% 30.00 in 10.0 mi Variable 4.6 mph - N/A   Clear
9:53 AM 66.9 °F 44.1 °F 44% 30.04 in 10.0 mi Calm Calm - N/A   Clear
10:53 AM 69.1 °F 45.0 °F 42% 30.04 in 10.0 mi Calm Calm - N/A   Clear
11:53 AM 73.0 °F 45.0 °F 37% 30.06 in 10.0 mi North 3.5 mph - N/A   Clear
12:53 PM 73.9 °F 45.0 °F 35% 30.06 in 10.0 mi North 5.8 mph - N/A   Clear
1:53 PM 73.0 °F 45.0 °F 37% 30.07 in 10.0 mi West 3.5 mph - N/A   Scattered Clouds
2:53 PM 73.9 °F 46.0 °F 37% 30.09 in 10.0 mi WNW 12.7 mph - N/A   Mostly Cloudy
3:53 PM 70.0 °F 46.9 °F 44% 30.14 in 10.0 mi NW 15.0 mph 24.2 mph N/A   Overcast
4:53 PM 64.0 °F 55.0 °F 73% 30.19 in 10.0 mi WNW 8.1 mph - 0.02 in Rain Light Rain
5:53 PM 61.0 °F 54.0 °F 78% 30.26 in 10.0 mi ESE 6.9 mph - 0.00 in Rain Light Rain
6:53 PM 57.0 °F 55.9 °F 96% 30.30 in 10.0 mi Calm Calm - 0.41 in Rain Heavy Rain
7:07 PM 57.2 °F 55.4 °F 94% 30.34 in 10.0 mi SSW 4.6 mph - 0.06 in Rain Rain
7:53 PM 57.9 °F 55.0 °F 90% 30.35 in 10.0 mi WNW 6.9 mph - 0.14 in Rain Rain
8:53 PM 57.0 °F 55.0 °F 93% 30.34 in 10.0 mi WNW 9.2 mph - 0.11 in Rain Light Rain
9:53 PM 55.9 °F 54.0 °F 93% 30.35 in 10.0 mi WNW 9.2 mph - 0.02 in   Scattered Clouds
10:53 PM 57.0 °F 54.0 °F 89% 30.37 in 10.0 mi WNW 11.5 mph - N/A   Overcast
11:43 PM 57.2 °F 53.6 °F 88% 30.42 in 10.0 mi West 6.9 mph - N/A   Overcast
11:53 PM 57.0 °F 53.1 °F 87% 30.36 in 10.0 mi WNW 4.6 mph - N/A   Overcast